Location: Favalello
(42.2939°N, 9.2706°E)
Time: 03:08:06
(UTC+00:00)

CZ-4 R/B - Pass Details

Date: 06 December 2019
Orbit: 532 x 598 km, 97.7° (Epoch: 20 January)

Event Time Altitude Azimuth Distance (km) Brightness Sun altitude
Rises 17:02:44 0° 143° (SE) 2,731 4.7 -13.0°
Reaches altitude 10° 17:05:02 10° 133° (SE) 1,829 3.7 -13.4°
Maximum altitude 17:08:32 31° 70° (ENE) 970 2.0 -14.0°
Drops below altitude 10° 17:12:01 10° 8° (N) 1,813 3.7 -14.6°
Sets 17:14:17 0° 358° (N) 2,703 4.7 -15.0°
